Alma, GA

7:57 AM EDT on October 23, 2017 (GMT -0400)
Bacon County

Weather History for KAMG - September, 2012

Change the Weather History Date:

Tuesday, September 18, 2012

  Actual Average Record
Temperature  
Mean Temperature 74 °F 77 °F  
Max Temperature 78 °F 87 °F 96 °F (1972)
Min Temperature 70 °F 67 °F 55 °F (1981)
Degree Days  
Heating Degree Days 0 0  
Month to date heating degree days 0 0  
Since 1 July heating degree days 0 0  
Cooling Degree Days 9 12  
Month to date cooling degree days 250 242  
Year to date cooling degree days 2357 2149  
Growing Degree Days 24 (Base 50)    
Moisture  
Dew Point 72 °F    
Average Humidity 87    
Maximum Humidity 94    
Minimum Humidity 79    
Precipitation  
Precipitation 0.64 in 0.12 in 1.13 in (2006)
Month to date precipitation 1.68 2.33  
Year to date precipitation 32.47 36.54  
Snow  
Snow 0.00 in 0.00 in 0.00 in ()
Month to date snowfall 0.0 0.0  
Since 1 July snowfall 0.0 0.0  
Since 1 September snowfall 0.0 0.0  
Snow Depth 0.00 in    
Sea Level Pressure  
Sea Level Pressure 29.84 in    
Wind  
Wind Speed 7 mph (South)    
Max Wind Speed 17 mph    
Max Gust Speed 22 mph    
Visibility 8 miles    
Events Rain , Thunderstorm    
T = Trace of Precipitation, MM = Missing Value Source: NWS Daily Summary

Daily Weather History Graph

Daily Weather History Graph

Search for Another Location

Airport or City:

Trip Planner

Search our weather history database for the weather conditions in past years. The results will help you decide how hot, cold, wet, or windy it might be!

Date:

Astronomy

Sep. 18, 2012 Rise Set
Actual Time 7:16 AM EDT 7:31 PM EDT
Civil Twilight 6:51 AM EDT 7:55 PM EDT
Nautical Twilight 6:23 AM EDT 8:23 PM EDT
Astronomical Twilight 5:54 AM EDT 8:52 PM EDT
Moon 9:59 AM EDT (9/18) 9:10 PM EDT (9/18)
Length of Visible Light 13h 03m
Length of Day
12h 15m
Waxing Crescent, 9% of the Moon is Illuminated
Sep 18
Waxing Crescent
Sep 22
First Quarter
Sep 29
Full
Oct 8
Last Quarter
Oct 15
New

Hourly Weather History & Observations

Time (EDT) Temp. Dew Point Humidity Pressure Visibility Wind Dir Wind Speed Gust Speed Precip Events Conditions
12:20 AM 75.2 °F 73.4 °F 94% 29.91 in 10.0 mi SSE 6.9 mph - N/A Thunderstorm Overcast
12:46 AM 75.2 °F 73.4 °F 94% 29.91 in 9.0 mi SSE 10.4 mph - 0.01 in   Overcast
12:53 AM 75.9 °F 73.0 °F 91% 29.88 in 5.0 mi SSE 8.1 mph - 0.02 in Rain Rain
1:53 AM 75.9 °F 72.0 °F 87% 29.85 in 10.0 mi SSE 6.9 mph - 0.00 in   Clear
2:53 AM 75.0 °F 72.0 °F 90% 29.86 in 10.0 mi South 6.9 mph - N/A   Clear
3:53 AM 75.0 °F 72.0 °F 90% 29.84 in 10.0 mi SSE 5.8 mph - N/A   Mostly Cloudy
4:26 AM 75.2 °F 71.6 °F 89% 29.85 in 10.0 mi SE 4.6 mph - N/A   Mostly Cloudy
4:40 AM 75.2 °F 71.6 °F 89% 29.84 in 10.0 mi SSE 4.6 mph - N/A   Mostly Cloudy
4:53 AM 75.0 °F 72.0 °F 90% 29.83 in 10.0 mi SE 5.8 mph - N/A   Overcast
5:06 AM 75.2 °F 71.6 °F 89% 29.83 in 10.0 mi SE 5.8 mph - N/A   Mostly Cloudy
5:16 AM 73.4 °F 71.6 °F 94% 29.84 in 10.0 mi SE 5.8 mph - N/A   Mostly Cloudy
5:35 AM 73.4 °F 71.6 °F 94% 29.83 in 10.0 mi SSE 6.9 mph - N/A   Mostly Cloudy
5:53 AM 75.0 °F 72.0 °F 90% 29.83 in 10.0 mi SSE 9.2 mph - N/A   Mostly Cloudy
6:45 AM 75.2 °F 71.6 °F 89% 29.84 in 6.0 mi South 10.4 mph - 0.03 in Rain Light Rain
6:53 AM 75.0 °F 72.0 °F 90% 29.83 in 5.0 mi South 10.4 mph - 0.04 in Rain Rain
7:09 AM 75.2 °F 73.4 °F 94% 29.83 in 8.0 mi South 9.2 mph - 0.00 in Thunderstorm Overcast
7:27 AM 75.2 °F 73.4 °F 94% 29.83 in 4.0 mi South 10.4 mph - 0.07 in Rain Rain
7:39 AM 75.2 °F 73.4 °F 94% 29.84 in 5.0 mi South 10.4 mph - 0.09 in Rain Rain
7:53 AM 75.0 °F 73.0 °F 94% 29.83 in 4.0 mi South 9.2 mph - 0.12 in Rain Rain
8:53 AM 75.9 °F 73.0 °F 91% 29.83 in 9.0 mi South 10.4 mph 18.4 mph 0.01 in   Overcast
9:25 AM 75.2 °F 73.4 °F 94% 29.85 in 10.0 mi SSW 9.2 mph 18.4 mph N/A   Mostly Cloudy
9:32 AM 75.2 °F 73.4 °F 94% 29.85 in 10.0 mi South 10.4 mph - N/A   Scattered Clouds
9:53 AM 77.0 °F 73.0 °F 88% 29.85 in 10.0 mi SSW 9.2 mph - N/A   Mostly Cloudy
10:34 AM 75.2 °F 73.4 °F 94% 29.87 in 1.8 mi WSW 12.7 mph 19.6 mph 0.06 in Rain Heavy Rain
10:42 AM 75.2 °F 73.4 °F 94% 29.88 in 1.0 mi WSW 11.5 mph 20.7 mph 0.14 in Rain Heavy Rain
10:47 AM 73.4 °F 71.6 °F 94% 29.87 in 1.0 mi WSW 9.2 mph 18.4 mph 0.17 in Rain Heavy Rain
10:53 AM 73.9 °F 71.1 °F 91% 29.86 in 2.0 mi West 6.9 mph 16.1 mph 0.19 in Rain Heavy Rain
11:01 AM 73.4 °F 71.6 °F 94% 29.87 in 3.0 mi WSW 5.8 mph - 0.02 in Rain Rain
11:11 AM 73.4 °F 71.6 °F 94% 29.86 in 2.5 mi SW 4.6 mph - 0.04 in Rain Rain
11:20 AM 73.4 °F 71.6 °F 94% 29.86 in 4.0 mi South 4.6 mph - 0.05 in Rain Rain
11:35 AM 73.4 °F 71.6 °F 94% 29.86 in 5.0 mi SSW 8.1 mph - 0.08 in Rain Rain
11:53 AM 73.0 °F 71.1 °F 93% 29.84 in 5.0 mi South 8.1 mph - 0.11 in Rain Rain
12:12 PM 73.4 °F 71.6 °F 94% 29.85 in 9.0 mi South 9.2 mph - 0.01 in Rain Light Rain
12:26 PM 73.4 °F 71.6 °F 94% 29.86 in 10.0 mi South 9.2 mph - 0.02 in Rain Light Rain
12:53 PM 73.9 °F 71.1 °F 91% 29.84 in 10.0 mi South 10.4 mph - 0.02 in   Mostly Cloudy
1:53 PM 73.9 °F 70.0 °F 87% 29.84 in 10.0 mi South 10.4 mph - N/A   Mostly Cloudy
2:08 PM 73.4 °F 69.8 °F 88% 29.84 in 10.0 mi South 9.2 mph - 0.00 in Rain Light Rain
2:53 PM 75.0 °F 71.1 °F 87% 29.80 in 10.0 mi SSW 8.1 mph - 0.00 in   Overcast
3:53 PM 75.9 °F 71.1 °F 85% 29.79 in 10.0 mi SSW 9.2 mph - N/A   Overcast
4:26 PM 77.0 °F 71.6 °F 83% 29.80 in 10.0 mi SW 10.4 mph 16.1 mph N/A   Mostly Cloudy
4:53 PM 78.1 °F 71.1 °F 79% 29.79 in 10.0 mi SSW 11.5 mph - N/A   Mostly Cloudy
5:25 PM 78.8 °F 71.6 °F 78% 29.80 in 10.0 mi SSW 8.1 mph - N/A   Scattered Clouds
5:53 PM 77.0 °F 71.1 °F 82% 29.79 in 10.0 mi SSW 6.9 mph - N/A   Clear
6:53 PM 77.0 °F 72.0 °F 84% 29.79 in 10.0 mi South 8.1 mph - N/A   Partly Cloudy
7:17 PM 75.2 °F 71.6 °F 89% 29.80 in 10.0 mi South 8.1 mph - N/A   Mostly Cloudy
7:53 PM 75.0 °F 71.1 °F 87% 29.79 in 10.0 mi South 6.9 mph - N/A   Scattered Clouds
8:53 PM 73.9 °F 71.1 °F 91% 29.81 in 10.0 mi SSW 5.8 mph - N/A   Clear
9:19 PM 73.4 °F 71.6 °F 94% 29.85 in 10.0 mi West 4.6 mph - N/A   Scattered Clouds
9:28 PM 75.2 °F 69.8 °F 83% 29.86 in 10.0 mi NNW 11.5 mph - N/A   Mostly Cloudy
9:48 PM 73.4 °F 69.8 °F 88% 29.87 in 2.0 mi West 8.1 mph - 0.05 in Rain Heavy Rain
9:53 PM 73.0 °F 70.0 °F 90% 29.87 in 2.0 mi WSW 4.6 mph - 0.08 in Rain Rain
10:15 PM 71.6 °F 69.8 °F 94% 29.87 in 4.0 mi SSW 5.8 mph - 0.06 in Rain Light Rain
10:53 PM 71.1 °F 69.1 °F 93% 29.88 in 10.0 mi SSW 5.8 mph - 0.07 in   Overcast
11:53 PM 71.1 °F 69.1 °F 93% 29.88 in 10.0 mi Calm Calm - N/A   Mostly Cloudy